Regional Weather Roundup
Issued by NWS

Home | Current Version | Previous Version | Graphics & Text | Print | Product List | Glossary On
Versions: 1 2 3 4 5 6 7 8 9 10 11 12 13 14 15 16 17 18 19 20 21 22 23 24 25 26 27 28 29 30 31 32 33 34 35 36 37 38 39 40 41 42 43 44 45 46 47 48 49 50
000
ASUS43 KMPX 271610
RWRMN
WEATHER ROUNDUP FOR MINNESOTA
NATIONAL WEATHER SERVICE TWIN CITIES/CHANHASSEN MN
1100 AM CDT MON MAR 27 2017


NOTE: "FAIR" INDICATES FEW OR NO CLOUDS BELOW 12,000 FEET WITH NO
SIGNIFICANT WEATHER AND/OR OBSTRUCTIONS TO VISIBILITY. N/A MEANS
CURRENT SKY AND/OR WEATHER CONDITIONS ARE NOT AVAILABLE.

MNZ060>063-068>070-271700-
   Twin Cities Metro

CITY           SKY/WX    TMP DP  RH WIND       PRES   REMARKS
TWIN CITIES    MOSUNNY   48  35  60 N6        29.98R
ST PAUL        MOSUNNY   46  37  71 N6        29.98F
CRYSTAL        SUNNY     48  34  58 N6        29.96S
BLAINE         MOSUNNY   48  37  66 N7        29.97S
LAKEVILLE      CLOUDY    43  37  81 N8        29.98R
EDEN PRAIRIE   PTSUNNY   49  36  61 NE6       29.97R
SOUTH ST PAUL  MOSUNNY   44  36  71 N6        29.98R
LAKE ELMO      FAIR      45  37  76 NE5       29.98F
$$
MNZ001>005-007-008-013>017-022>024-027-028-271700-
   Northwest Minnesota

CITY           SKY/WX    TMP DP  RH WIND       PRES   REMARKS
BEMIDJI        SUNNY     43  34  70 NE3       29.99R
HALLOCK        FOG       32  30  93 CALM      30.02R VSB<1/4
ROSEAU         MOSUNNY   37  34  87 CALM      30.00S
WARROAD        SUNNY     37  34  87 CALM      30.01S
THIEF RVR FALL FOG       37  36  96 CALM      30.02R VSB<1/4
CROOKSTON      FOG       36  36 100 CALM      30.02S VSB 3/4
FOSSTON        MOSUNNY   41  37  87 CALM      30.01R FOG
DETROIT LAKES  SUNNY     46  36  66 CALM      30.00S
MOORHEAD       SUNNY     43  39  87 CALM      30.01S
PARK RAPIDS    SUNNY     48  33  56 CALM      29.98R
MAHNOMEN       FAIR      42  39  91 CALM      29.99S
$$
MNZ006-009>011-018-025>026-271700-
   North Central Minnesota

CITY           SKY/WX    TMP DP  RH WIND       PRES   REMARKS
BAUDETTE       MOSUNNY   38  36  92 CALM      30.01R
FLAG ISLAND    SUNNY     36  30  80 S6        30.01R
INTL FALLS     SUNNY     44  33  65 CALM      30.00R
WASKISH        SUNNY     39  37  93 CALM      30.00S
BIG FORK       MOSUNNY   45  34  65 CALM      29.99S
LONGVILLE      SUNNY     45  34  65 CALM      29.98F
GRAND RAPIDS   MOSUNNY   42  33  70 VRB5      30.01R
CRANE LAKE     PTSUNNY   37  32  81 NW3       30.01S
ORR            MOSUNNY   39  30  70 CALM      29.97S
COOK           MOSUNNY   39  34  81 CALM      29.99R
WALKER         FAIR      41  33  74 SE5       29.99S
$$
MNZ012-019>021-037-271700-
   Northeast Minnesota

CITY           SKY/WX    TMP DP  RH WIND       PRES   REMARKS
DULUTH         CLOUDY    41  35  79 NE3       29.96F
ELY            CLOUDY    39  30  70 NE3       29.97S
HIBBING        CLOUDY    39  34  82 CALM      29.98R
EVELETH        CLOUDY    40  32  71 CALM      29.99S
DULUTH HARBOR  DRIZZLE   37  36  93 CALM      30.00S
TWO HARBORS    CLOUDY    45  37  76 CALM      29.95F
SILVER BAY     MOSUNNY   45  36  70 N3        29.95S
GRAND MARAIS     N/A     40  35  83 CALM      29.97R
G MARAIS ARPRT MOSUNNY   39  30  70 CALM      29.95S
$$
MNZ029>031-032-039>041-046>048-054>057-064-271700-
   West Central Minnesota

CITY           SKY/WX    TMP DP  RH WIND       PRES   REMARKS
FERGUS FALLS   CLOUDY    45  37  76 CALM      30.02F
WHEATON        CLOUDY    45  37  76 CALM      30.02S
MORRIS         CLOUDY    45  39  81 N3        29.98S
ALEXANDRIA     CLOUDY    43  37  79 N6        29.99R
ELBOW LAKE     PTSUNNY   41  38  89 E3        30.00R
WADENA         CLOUDY    46  36  66 E3        29.99R
GLENWOOD       CLOUDY    43  37  81 N3        29.99R
APPLETON       PTSUNNY   46  39  76 CALM      29.99R
BENSON         CLOUDY    46  36  66 CALM      30.01R
ORTONVILLE     CLOUDY    43  39  87 CALM      29.99S
MADISON        CLOUDY    46  43  87 CALM      29.99S
WILLMAR        FAIR      48  39  71 E3        30.00R
$$
MNZ033>034-036-042>043-049>051-058-059-271700-
   Central Minnesota

CITY           SKY/WX    TMP DP  RH WIND       PRES   REMARKS
ST CLOUD       PTSUNNY   47  37  68 NW6       29.98R
SAUK CENTRE    PTSUNNY   44  36  73 NE6       29.99R
PAYNESVILLE      N/A     46  36  68 NE6       29.98S
AITKIN         MOSUNNY   46  30  53 E5        29.97R
PINE RIVER     MOSUNNY   46  36  66 CALM      30.02S
BRAINERD       CLOUDY    46  33  60 NE6       29.98S
STAPLES        CLOUDY    46  34  61 N5        29.99R
LONG PRAIRIE   CLOUDY    43  34  70 CALM      29.99R
LITTLE FALLS   CLOUDY    45  34  65 CALM      29.98S
LITCHFIELD     MOSUNNY   48  37  66 NE3       29.99R
BUFFALO        CLOUDY    47  37  68 N6        29.99R
MAPLE LAKE     PTSUNNY   47  40  76 N7        30.00R
HUTCHINSON     CLOUDY    49  39  67 NE5       29.99S
$$
MNZ037-044-045-052-053-271700-
   East Central Minnesota

CITY           SKY/WX    TMP DP  RH WIND       PRES   REMARKS
PRINCETON      SUNNY     48  37  66 N6        29.98R
MORA           SUNNY     43  41  93 N3        29.99S
CAMBRIDGE      PTSUNNY   48  36  61 N3        29.96R
RUSH CITY      MOSUNNY   45  38  78 CALM      29.98S
MOOSE LAKE     CLOUDY    39  36  87 CALM      29.97S
CLOQUET        CLOUDY    39  34  81 CALM      29.97F
MCGREGOR       CLOUDY    41  36  81 N5        29.99R
$$
MNZ071>073-080-081-089-090-097-098-271700-
   Southwest Minnesota

CITY           SKY/WX    TMP DP  RH WIND       PRES   REMARKS
MONTEVIDEO     CLOUDY    54  43  66 CALM      30.01R
GRANITE FALLS  SUNNY     51  39  64 CALM      30.01R
CANBY          PTSUNNY   47  39  73 CALM      30.00R
MARSHALL       CLOUDY    45  39  79 N3        30.00R
REDWOOD FALLS  PTSUNNY   47  37  68 CALM      29.98S
OLIVIA         SUNNY     50  39  66 CALM      29.98R
PIPESTONE      CLOUDY    45  36  70 CALM      29.97R
WINDOM         MOSUNNY   45  39  81 N3        29.98S
WORTHINGTON    CLOUDY    43  38  82 N6        29.99R
JACKSON        CLOUDY    43  37  81 N6        29.98S
TRACY          CLOUDY    46  40  80 N3        29.99R
SLAYTON        CLOUDY    42  37  83 NW3       29.99R
$$
MNZ065>067-074>077-082>085-091>093-271700-
   South Central Minnesota

CITY           SKY/WX    TMP DP  RH WIND       PRES   REMARKS
MANKATO        CLOUDY    43  36  76 NE9       29.99R
NEW ULM        CLOUDY    46  36  66 NE6       29.99R
ST JAMES       CLOUDY    45  37  76 CALM      30.00R
FAIRMONT       CLOUDY    43  38  82 N9        29.98R
GLENCOE        MOSUNNY   47  41  80 N6        29.97S
FARIBAULT      CLOUDY    43  39  87 N7        29.98R
OWATONNA       CLOUDY    39  37  93 N3        29.98R
WASECA         CLOUDY    39  36  87 N5        29.99R
ALBERT LEA     CLOUDY    37  37 100 N6        29.96R FOG
$$
MNZ078>079-086>088-094>096-271700-
   Southeast Minnesota

CITY           SKY/WX    TMP DP  RH WIND       PRES   REMARKS
ROCHESTER      CLOUDY    39  38  96 N7        29.95S
RED WING       CLOUDY    43  37  81 N7        29.97R
STANTON        CLOUDY    41  38  87 NE5       29.97R
DODGE CENTER   CLOUDY    37  37 100 N7        29.96R
WINONA         CLOUDY    41  39  93 NW5       29.97R
AUSTIN         CLOUDY    39  37  93 N7        29.96R FOG
PRESTON        CLOUDY    40  37  90 N6        29.95R
$$
ABBREVIATIONS USED IN REMARKS
   TC - TEMPERATURES IN CELSIUS
  WCI - WIND CHILL INDEX
   HX - HEAT INDEX
  VSB - VISIBILITY
$$



USA.gov is the U.S. government's official web portal to all federal, state and local government web resources and services.